RH
68 57 37 55 73 79 57 28 30 21 17 23 34 44 49 47 47 49 48 54 54 60 70 76 82 85 85 87 90 82 79 78 75 73 69 72 74 73 77 84 87 90 95 95
56 58 40 41 58 50 54 54 30 26 20 15 28 39 48 48 47 53 54 53 56 57 58 71 87 83 85 86 84 87 89 80 73 78 73 75 76 79 78 77 76 75 82 95
51 39 52 57 58 46 42 41 44 48 32 44 40 50 55 53 55 55 56 55 56 56 57 58 74 88 89 89 89 85 86 89 84 78 81 78 72 76 79 83 80 82 85 89
57 44 80 45 42 39 42 41 42 38 46 66 71 77 71 62 59 57 56 56 56 54 53 53 54 73 79 86 86 81 81 84 86 90 86 78 80 76 75 78 84 87 86 85
62 53 33 54 41 54 58 53 56 46 60 75 69 61 74 59 56 58 58 56 55 52 51 51 55 60 71 76 82 80 84 82 84 86 90 93 86 85 77 78 82 85 88 91
52 59 59 51 34 33 47 89 62 54 63 65 55 75 88 67 56 55 53 52 53 52 49 52 54 56 72 78 78 83 84 87 81 85 88 90 96 90 86 77 78 89 91 95
57 58 39 44 44 40 78 86 74 69 79 67 73 93 86 64 59 54 53 54 50 52 52 54 54 56 63 72 81 77 76 80 80 81 87 88 95 97 97 98 98 99 98 98
62 68 61 45 46 70 66 64 87 79 78 76 80 80 73 63 63 61 55 54 52 52 54 53 54 59 60 68 71 75 75 77 78 82 85 88 96 98 99 98 98 99 99 98
63 50 46 51 73 79 71 76 83 69 64 72 76 72 67 72 68 66 60 56 54 52 54 55 54 59 64 72 67 73 75 79 80 80 82 86 94 97 98 98 99 99 98 97
95 89 94 93 84 73 74 82 85 70 68 67 69 67 61 56 56 58 61 58 54 54 56 58 56 59 63 66 66 70 76 81 82 86 90 90 89 93 95 96 96 96 96 96
89 81 93 92 94 92 88 82 74 62 60 60 60 62 61 62 62 63 62 57 58 63 62 58 56 60 62 63 67 74 81 82 84 86 89 92 96 95 96 98 92 94 95 94
98 98 99 98 98 95 94 97 96 68 69 65 62 67 64 68 66 63 65 62 65 67 66 62 59 62 65 66 69 76 80 83 86 85 86 85 87 94 94 94 92 91 89 91
100 100 99 100 95 97 99 100 100 99 93 69 66 64 68 76 89 89 86 86 84 85 79 76 76 77 78 79 81 87 88 86 85 86 86 86 86 87 93 95 91 89 88 87
99 99 100 98 99 100 99 99 96 70 74 80 64 64 70 83 89 93 94 93 91 89 90 88 88 91 90 90 89 88 92 89 89 89 92 93 92 92 88 88 93 96 94 93
72 71 90 97 93 94 83 88 81 69 69 68 62 61 62 69 76 85 86 88 87 89 91 89 89 92 88 86 87 91 90 90 89 88 87 86 85 84 81 83 88 92 91 90
70 59 56 59 61 63 72 71 70 70 71 72 70 71 70 66 63 68 71 76 86 92 91 89 90 91 89 86 85 87 86 84 81 82 83 83 83 83 82 81 83 85 85 86
65 68 64 61 60 63 67 72 78 72 72 74 73 69 67 72 76 81 88 88 89 89 87 88 89 88 87 85 86 80 80 78 80 77 78 78 78 79 79 80 81 82 87 91
54 56 53 58 61 62 62 66 69 72 78 80 83 87 89 89 91 91 91 87 86 88 88 86 84 81 82 79 74 71 73 74 75 80 80 82 79 76 79 79 78 80 84 79
51 55 56 56 61 66 71 78 83 86 87 87 87 90 89 88 87 88 86 85 84 83 88 80 80 76 78 83 70 72 76 79 76 74 77 83 85 81 85 85 82 78 71 73
54 55 59 68 73 77 84 85 84 85 88 86 86 87 89 89 88 87 86 90 88 82 75 77 75 78 77 79 77 73 80 85 78 84 87 87 89 87 79 71 73 78 82 81
81 74 79 80 84 86 88 86 86 85 89 89 87 89 89 88 88 87 83 74 84 80 77 79 73 70 68 70 70 85 88 89 88 87 86 85 82 77 79 80 80 81 82 81
84 86 88 87 85 88 88 87 85 88 88 88 88 87 86 86 86 86 88 85 76 85 75 74 74 83 76 83 77 88 84 83 82 80 81 80 80 81 81 80 81 81 80 80
84 82 85 87 88 88 86 87 88 87 87 87 87 85 83 82 81 81 80 80 74 83 76 83 87 88 89 90 89 86 81 80 80 79 80 80 80 80 79 79 80 80 81 79
83 83 84 82 78 79 85 86 83 85 84 83 86 86 81 82 85 75 74 82 85 86 89 89 89 88 86 86 84 83 82 82 82 82 80 76 82 80 79 80 79 80 80 78
82 83 81 78 72 70 77 79 74 76 77 80 80 77 77 74 85 82 82 82 81 79 85 86 84 86 89 88 85 83 82 82 82 81 80 81 81 80 80 79 79 79 79 78
78 69 72 82 74 65 64 64 66 70 68 78 79 83 83 80 78 77 81 79 79 79 83 87 87 85 84 82 83 82 81 77 79 79 79 80 79 79 80 79 79 78 79 79
75 75 68 67 66 66 68 70 74 77 76 81 81 80 77 81 82 77 82 83 84 84 86 86 86 83 85 86 84 83 82 82 79 78 80 81 80 81 80 80 80 80 81 81
Wind_Speed
15 19 11 2 12 10 10 20 17 15 14 12 14 12 13 12 10 9 9 10 11 12 12 11 11 10 11 11 11 4 11 10 10 11 11 10 9 9 10 10 10 10 9 11
19 9 13 3 4 3 12 15 16 11 19 10 12 9 12 11 11 9 9 10 10 12 11 11 11 10 8 11 12 10 5 7 9 8 11 11 11 10 10 10 11 11 12 10
8 14 5 4 10 3 3 3 4 11 3 5 12 12 10 10 9 9 9 10 10 11 10 10 10 8 8 10 11 12 10 4 4 9 9 10 11 11 11 10 10 11 11 11
11 11 4 5 10 4 5 4 5 5 6 8 12 13 13 10 10 9 9 10 10 10 9 11 11 11 10 10 9 11 11 11 11 7 8 11 10 11 11 11 11 9 10 12
5 9 2 5 9 9 8 6 12 4 9 14 14 16 13 10 11 10 10 9 9 9 10 10 11 10 10 11 12 13 13 11 11 10 8 7 10 11 12 10 10 10 8 8
7 6 4 5 16 16 4 4 6 6 10 11 10 5 6 6 8 9 11 10 9 8 9 11 12 10 10 11 11 12 13 12 10 9 9 8 7 8 8 11 12 8 5 2
5 4 7 14 20 15 4 9 12 9 13 8 8 6 6 3 8 10 11 11 9 9 10 11 10 10 9 9 11 9 9 9 10 10 9 9 9 6 4 4 7 7 9 8
4 4 4 20 11 11 13 15 8 12 5 7 9 10 7 8 10 11 10 10 10 9 10 11 11 9 8 10 8 7 7 9 10 11 9 7 7 5 7 8 8 7 9 9
6 7 12 14 12 13 14 4 8 7 3 7 9 9 9 8 7 8 9 9 10 9 9 10 11 11 9 10 9 7 7 8 9 8 7 8 8 7 7 8 7 7 8 8
7 4 10 12 14 13 13 13 10 12 11 9 10 8 7 7 8 8 9 9 10 10 11 11 11 10 10 10 8 9 10 9 9 11 11 10 8 7 7 6 7 8 8 9
10 9 11 14 14 13 12 12 13 14 14 11 10 9 7 8 8 7 7 8 9 9 10 11 11 12 12 11 9 9 9 8 9 9 11 12 14 9 7 8 6 9 9 9
4 9 3 8 12 11 11 12 12 10 13 13 10 9 8 7 7 8 8 9 9 10 10 11 12 12 12 11 10 9 10 9 8 8 8 9 10 14 28 24 26 24 21 15
5 5 9 6 13 10 11 9 10 9 11 11 10 9 8 7 8 9 9 10 10 10 10 10 11 11 11 10 10 10 9 9 8 8 8 9 10 11 14 22 30 29 29 28
10 7 2 11 7 11 7 6 8 8 10 9 8 7 6 6 6 8 9 8 8 9 10 10 10 10 10 9 9 10 11 12 8 8 8 9 9 10 10 12 14 13 22 21
7 7 5 6 6 10 10 7 7 8 8 8 8 7 7 7 7 8 7 6 6 10 11 10 10 10 9 9 10 10 9 8 8 9 10 12 11 12 12 13 12 13 12 16
2 7 6 7 8 9 9 9 8 8 8 7 7 8 7 6 7 8 9 10 10 10 10 9 9 9 8 7 9 9 10 11 9 9 9 10 9 10 11 11 11 10 10 9
4 6 8 8 8 8 8 8 8 7 7 6 5 5 6 6 7 7 8 8 8 9 9 9 9 7 6 6 7 7 7 8 10 8 9 8 9 9 9 9 10 10 10 9
5 4 6 6 7 7 7 7 8 9 8 6 5 5 5 5 5 6 6 6 6 8 10 10 9 7 8 8 7 7 7 7 8 8 8 8 8 8 8 9 10 10 10 10
7 6 6 7 7 6 7 7 7 7 6 4 4 5 5 6 6 6 6 5 6 7 10 9 9 9 9 9 6 6 7 8 9 8 8 9 8 8 8 9 9 10 9 9
8 7 7 7 8 8 7 8 7 5 6 4 4 5 6 7 6 5 6 8 8 6 7 8 7 8 8 8 6 6 7 8 8 7 7 8 8 9 9 10 10 9 9 9
7 7 7 6 6 7 6 6 5 6 6 6 6 7 6 6 6 4 2 4 8 7 6 8 7 5 5 5 5 6 6 7 7 7 7 8 9 9 8 9 9 9 9 8
5 5 5 5 6 7 8 8 7 6 7 7 7 6 5 6 5 7 8 7 5 8 5 6 6 9 6 6 6 6 7 7 7 7 7 7 8 8 8 8 8 8 8 7
5 5 5 5 5 6 6 7 7 7 7 7 7 7 6 6 6 4 4 7 6 7 6 7 7 8 7 6 6 7 7 7 7 7 7 7 7 7 8 8 8 8 7 7
5 5 5 4 3 4 6 6 5 6 5 6 7 6 5 3 4 5 4 6 8 8 8 8 8 9 8 6 7 7 7 7 7 7 8 9 7 7 8 7 7 7 7 7
4 3 4 4 4 4 4 5 3 4 4 5 5 5 6 5 5 4 4 5 7 6 7 10 11 10 7 7 7 7 7 7 7 7 7 7 7 7 7 7 6 7 6 5
2 3 4 5 5 4 3 2 2 2 1 3 4 4 4 4 4 4 5 6 6 7 7 7 7 7 7 8 8 8 8 7 7 8 8 7 7 7 6 7 6 6 5 5
3 1 2 2 3 2 3 3 1 3 2 3 4 3 4 4 4 4 5 5 5 6 6 6 7 8 7 7 8 8 7 7 7 7 7 6 6 6 5 5 5 5 5 4
Wind_Direction
320 317 334 211 165 201 258 242 238 233 235 182 183 175 158 153 149 143 102 76 61 59 42 28 47 40 15 7 1 251 193 194 202 209 201 193 195 180 172 174 172 169 163 175
311 276 332 149 137 200 181 237 248 254 250 235 156 140 156 151 139 117 90 77 67 57 38 43 15 32 22 15 359 333 334 216 197 207 203 195 202 193 189 186 185 178 178 168
296 336 319 96 354 355 194 162 285 216 257 170 195 174 155 150 121 94 75 59 49 46 31 22 23 355 28 32 4 350 13 321 226 193 205 207 203 198 201 195 189 189 183 178
300 314 50 38 5 331 316 315 317 274 150 126 93 76 64 67 95 79 65 55 45 38 26 24 14 7 13 40 16 355 19 19 10 345 216 200 203 204 203 202 197 196 195 192
308 314 289 53 10 359 341 323 329 225 137 121 125 109 72 64 64 64 57 49 48 40 35 28 19 10 19 26 21 2 1 5 356 348 332 335 203 198 201 203 199 196 191 191
324 315 350 37 341 328 272 218 316 161 138 144 175 154 90 47 54 63 58 45 39 39 41 36 16 11 25 27 27 6 353 341 343 345 342 324 320 244 206 200 200 183 156 102
301 278 290 2 335 321 261 13 329 97 74 62 83 69 93 86 59 54 49 42 31 39 40 35 23 14 28 32 24 358 335 347 346 351 346 330 308 282 208 118 104 92 88 66
317 284 281 3 349 4 327 319 313 103 134 148 103 113 99 64 50 41 37 31 27 35 35 29 24 18 26 22 8 9 357 2 6 6 351 351 4 21 68 92 98 89 93 78
308 324 327 354 340 336 333 336 321 149 150 132 121 88 78 71 63 50 32 27 23 24 31 30 22 18 12 6 5 15 31 31 18 27 17 26 40 39 62 81 94 92 90 88
304 77 28 18 2 9 16 28 48 60 92 100 95 89 83 67 54 45 33 25 20 22 24 21 22 20 14 4 1 31 36 35 35 40 40 33 42 38 55 72 91 96 98 96
284 345 340 22 4 2 33 41 53 64 69 74 82 72 68 61 52 52 40 37 29 26 22 23 21 19 14 4 16 42 48 47 49 52 55 54 50 47 58 47 84 108 101 101
345 355 357 17 357 7 44 29 26 58 70 55 60 70 65 59 47 39 40 38 40 32 27 23 25 23 17 9 23 43 52 46 43 53 61 70 74 73 63 72 76 82 87 95
325 303 38 350 17 13 41 41 48 43 56 68 49 50 50 56 44 45 44 40 41 40 32 28 28 29 17 21 36 45 60 59 57 59 65 73 74 79 84 73 80 85 91 97
18 357 1 20 358 358 17 42 56 61 64 62 56 50 55 56 45 45 40 35 40 45 40 39 36 30 18 28 52 65 68 64 72 71 67 71 72 77 84 91 91 83 77 91
33 49 29 347 6 17 15 25 45 40 37 48 42 37 41 39 41 33 28 23 46 55 43 37 36 33 19 39 53 61 70 73 77 79 80 84 86 90 93 92 93 95 95 84
321 29 15 17 11 12 21 19 28 24 28 26 35 39 35 40 49 46 34 31 34 35 32 38 40 27 21 38 65 77 72 74 86 94 95 100 103 104 103 95 92 92 91 93
4 3 358 6 2 7 12 14 14 10 19 23 34 44 52 50 58 48 37 32 43 38 32 32 38 37 49 44 68 79 79 76 79 84 88 91 93 93 94 99 96 88 77 72
37 18 7 6 345 348 4 13 9 5 9 7 23 48 56 52 52 49 38 32 43 47 29 27 22 40 44 47 56 72 80 84 85 87 91 92 93 94 94 95 96 95 93 83
33 23 23 24 358 0 6 9 5 354 356 7 48 66 66 57 48 44 36 28 28 32 27 22 22 38 49 37 48 71 86 92 89 86 94 103 96 92 93 96 98 99 101 97
44 36 30 31 27 15 11 9 350 18 5 27 80 77 74 59 48 50 56 53 32 15 14 21 33 46 51 54 53 75 82 87 94 97 92 91 90 88 90 93 102 101 98 96
45 41 38 28 32 38 27 12 20 27 28 33 57 59 56 53 40 351 27 52 30 16 21 38 33 46 53 59 68 81 90 97 103 106 102 103 111 106 106 105 102 103 103 103
59 52 42 34 42 37 25 24 34 39 44 52 57 62 78 77 76 72 44 21 38 8 30 39 40 37 54 60 70 77 82 89 92 97 100 106 110 111 110 109 108 107 106 104
68 67 66 51 40 46 47 39 39 38 48 46 47 47 43 40 15 360 52 25 34 27 50 50 52 59 62 70 77 82 87 93 97 100 104 107 109 111 114 115 111 111 112 112
65 59 60 60 62 61 54 50 41 52 48 63 56 30 17 61 73 55 82 72 53 50 48 48 55 60 68 76 81 87 91 94 96 96 97 99 100 104 108 111 110 102 104 103
56 54 43 26 35 52 33 36 54 63 56 61 53 56 44 39 43 49 48 64 50 64 71 59 58 61 68 74 78 82 83 86 93 98 96 97 100 103 104 105 108 106 104 104
59 40 47 26 21 22 26 359 33 35 55 78 66 61 66 63 70 69 69 60 63 67 65 62 60 68 71 74 79 82 86 87 85 85 91 91 94 96 99 108 116 110 105 101
84 341 106 93 65 46 27 30 52 80 58 66 82 68 69 72 68 72 71 73 71 72 70 66 65 65 71 74 76 76 77 76 71 84 87 90 91 96 104 106 103 102 107 117